�N����,����,�~����,�C��,���x,�C��,����,���ϕ���,�ő�u�ԕ���,�ő厞����,���˗�,�I�_���x,�n�����x,�ő啗���N��,DTYPE
"21/12/04","00:10",0.0,4.9,94.0,1009.0,320.1,1.2,2.1,330.2,0.00,4.1,9.6,"00:07:44",1
"21/12/04","00:20",0.0,4.8,94.2,1009.3,315.4,2.0,2.8,310.1,0.00,4.0,9.5,"00:10:56",1
"21/12/04","00:30",0.0,4.8,94.2,1008.8,318.9,1.6,2.4,320.9,0.00,4.0,9.7,"00:20:16",1
"21/12/04","00:40",0.0,4.7,94.3,1009.3,268.9,1.3,1.9,262.1,0.00,3.9,9.6,"00:30:48",1
"21/12/04","00:50",0.0,4.9,94.5,1008.8,304.9,1.7,2.5,321.2,0.00,4.1,9.7,"00:44:32",1
"21/12/04","01:00",0.0,5.3,94.5,1008.6,315.6,2.0,3.5,310.1,0.00,4.5,9.5,"00:56:00",1
"21/12/04","01:10",0.0,5.4,94.6,1008.8,262.3,1.2,2.0,297.7,0.00,4.6,9.5,"01:00:32",1
"21/12/04","01:20",0.0,5.4,94.5,1008.8,287.9,1.5,2.7,322.9,0.00,4.6,9.4,"01:17:52",1
"21/12/04","01:30",0.0,5.5,94.7,1008.8,316.9,1.5,1.9,312.4,0.00,4.8,9.5,"01:20:32",1
"21/12/04","01:40",0.0,5.4,94.6,1009.0,290.1,1.3,1.7,308.0,0.00,4.6,9.4,"01:33:36",1
"21/12/04","01:50",0.0,5.4,94.7,1009.3,296.4,1.3,2.5,319.3,0.00,4.7,9.5,"01:48:00",1
"21/12/04","02:00",0.0,5.3,94.9,1009.3,310.6,1.8,2.6,320.8,0.00,4.6,9.5,"01:59:28",1
"21/12/04","02:10",0.0,5.4,94.9,1009.3,311.3,1.6,2.6,329.4,0.00,4.7,9.6,"02:03:04",1
"21/12/04","02:20",0.0,5.7,95.0,1009.5,303.6,2.5,3.6,328.6,0.00,5.0,9.5,"02:16:24",1
"21/12/04","02:30",0.0,5.8,94.9,1009.3,284.9,1.6,3.1,333.5,0.00,5.1,9.5,"02:20:32",1
"21/12/04","02:40",0.0,5.3,94.8,1009.3,278.6,0.6,1.9,319.3,0.00,4.6,9.3,"02:38:48",1
"21/12/04","02:50",0.0,4.8,94.9,1009.3,285.8,1.3,2.0,319.9,0.00,4.1,9.4,"02:49:52",1
"21/12/04","03:00",0.0,4.6,95.3,1009.5,315.0,1.8,2.4,325.1,0.00,4.0,9.3,"02:50:40",1
"21/12/04","03:10",0.0,4.4,95.3,1009.3,303.7,1.5,2.1,317.7,0.00,3.8,9.3,"03:08:32",1
"21/12/04","03:20",0.0,4.3,95.4,1009.0,300.4,1.6,2.5,314.4,0.00,3.7,9.4,"03:13:20",1
"21/12/04","03:30",0.0,4.1,95.5,1009.3,300.3,1.2,1.9,313.8,0.00,3.5,9.3,"03:23:36",1
"21/12/04","03:40",0.0,3.8,95.6,1009.3,282.5,0.8,1.4,264.4,0.00,3.2,9.3,"03:34:00",1
"21/12/04","03:50",0.0,3.9,95.7,1008.8,290.7,1.1,2.2,282.9,0.00,3.3,9.5,"03:42:48",1
"21/12/04","04:00",0.0,3.6,95.7,1009.0,303.5,1.7,2.8,322.2,0.00,3.0,9.2,"03:54:16",1
"21/12/04","04:10",0.0,3.3,95.9,1009.0,308.0,1.7,3.1,320.5,0.00,2.7,9.3,"04:05:36",1
"21/12/04","04:20",0.0,3.3,96.1,1009.0,290.2,1.3,2.5,323.6,0.00,2.8,9.3,"04:11:12",1
"21/12/04","04:30",0.0,3.5,96.5,1009.0,295.7,1.6,3.2,321.2,0.00,3.0,9.4,"04:29:36",1
"21/12/04","04:40",0.0,5.0,96.1,1009.0,313.1,2.5,3.9,325.9,0.00,4.5,9.1,"04:34:00",1
"21/12/04","04:50",0.0,5.4,96.0,1009.3,310.8,2.3,4.2,332.7,0.00,4.9,9.2,"04:48:56",1
"21/12/04","05:00",0.0,5.7,95.9,1009.5,297.0,2.3,4.8,341.3,0.00,5.1,9.2,"04:50:48",1
"21/12/04","05:10",0.0,5.7,95.7,1009.5,305.9,2.0,3.6,313.2,0.00,5.1,9.2,"05:01:44",1
"21/12/04","05:20",0.0,5.7,95.7,1009.0,300.1,1.7,2.5,305.9,0.00,5.1,9.2,"05:11:44",1
"21/12/04","05:30",0.0,5.6,95.6,1009.5,314.2,2.6,3.9,328.8,0.00,5.0,9.2,"05:22:40",1
"21/12/04","05:40",0.0,5.4,95.4,1009.5,317.2,2.2,3.4,331.9,0.00,4.8,9.1,"05:36:48",1
"21/12/04","05:50",0.0,5.2,95.4,1009.5,322.1,2.5,4.0,338.2,0.00,4.6,9.1,"05:47:12",1
"21/12/04","06:00",0.0,5.2,95.2,1009.7,311.7,2.3,3.3,315.8,0.00,4.5,9.0,"05:59:04",1
"21/12/04","06:10",0.0,5.2,95.2,1009.7,303.6,2.2,4.1,327.6,0.00,4.5,9.0,"06:09:04",1
"21/12/04","06:20",0.0,5.2,94.9,1009.7,328.8,2.3,3.7,327.3,0.00,4.5,9.0,"06:19:20",1
"21/12/04","06:30",0.0,5.5,94.8,1010.2,328.7,2.3,3.7,331.4,0.00,4.8,9.3,"06:24:24",1
"21/12/04","06:40",0.0,5.6,94.5,1010.7,318.6,2.2,4.0,339.1,0.00,4.8,9.0,"06:37:52",1
"21/12/04","06:50",0.0,5.7,94.2,1010.9,321.7,2.6,4.1,333.5,0.00,4.9,9.2,"06:49:44",1
"21/12/04","07:00",0.0,5.8,93.7,1010.7,324.6,2.7,4.2,324.3,0.00,4.9,9.2,"06:53:52",1
"21/12/04","07:10",0.0,5.9,93.3,1011.2,318.9,2.6,3.7,331.3,0.00,4.9,9.0,"07:04:08",1
"21/12/04","07:20",0.0,6.0,92.9,1011.2,311.8,2.3,3.7,334.4,0.00,5.0,9.1,"07:11:04",1
"21/12/04","07:30",0.0,5.9,92.5,1011.6,316.9,2.1,2.6,329.4,0.00,4.8,9.0,"07:24:16",1
"21/12/04","07:40",0.0,5.7,92.3,1011.9,317.1,2.1,3.1,333.7,0.00,4.6,8.8,"07:39:52",1
"21/12/04","07:50",0.0,6.1,91.9,1012.1,319.2,2.6,3.7,331.0,0.00,4.9,9.1,"07:43:36",1
"21/12/04","08:00",0.0,6.2,91.5,1012.1,302.9,1.8,3.7,311.5,0.00,5.0,8.9,"07:51:52",1
"21/12/04","08:10",0.0,6.0,91.2,1012.1,310.8,1.7,2.7,319.4,0.00,4.7,9.2,"08:05:52",1
"21/12/04","08:20",0.0,5.9,91.0,1012.1,316.1,1.8,2.2,307.3,0.01,4.6,9.2,"08:13:04",1
"21/12/04","08:30",0.0,6.3,91.1,1012.3,305.4,1.6,2.4,328.3,0.04,5.0,8.9,"08:22:56",1
"21/12/04","08:40",0.0,7.0,90.7,1012.6,276.6,1.6,2.6,276.1,0.07,5.6,9.2,"08:37:50",1
"21/12/04","08:50",0.0,8.1,89.9,1012.6,284.8,1.3,2.1,295.8,0.10,6.6,9.0,"08:42:16",1
"21/12/04","09:00",0.0,8.6,88.3,1013.0,280.2,1.2,2.7,337.0,0.12,6.8,9.0,"08:58:56",1
"21/12/04","09:10",0.0,9.0,86.4,1013.0,261.5,1.3,2.0,251.6,0.15,6.9,9.2,"09:04:08",1
"21/12/04","09:20",0.0,9.5,83.3,1013.5,256.7,2.0,3.9,232.3,0.20,6.9,8.9,"09:18:24",1
"21/12/04","09:30",0.0,9.6,79.5,1013.8,281.7,1.6,2.8,329.7,0.11,6.3,9.1,"09:21:52",1
"21/12/04","09:40",0.0,9.3,76.7,1014.0,272.6,2.5,4.9,243.4,0.09,5.5,8.9,"09:38:24",1
"21/12/04","09:50",0.0,9.2,75.4,1014.0,272.5,2.5,4.3,245.3,0.08,5.1,9.0,"09:42:24",1
"21/12/04","10:00",0.0,9.3,75.3,1013.8,282.1,2.3,4.5,244.7,0.10,5.2,8.9,"09:54:00",1
"21/12/04","10:10",0.0,9.2,75.4,1014.0,284.8,2.2,4.0,251.4,0.09,5.1,9.1,"10:08:32",1
"21/12/04","10:20",0.0,9.4,76.1,1014.2,290.7,1.7,3.1,298.1,0.17,5.4,9.2,"10:11:44",1
"21/12/04","10:30",0.0,10.2,75.1,1014.2,310.7,2.2,5.0,332.4,0.39,6.0,9.0,"10:25:20",1
"21/12/04","10:40",0.0,11.0,72.6,1014.0,302.2,1.8,4.0,309.4,0.42,6.3,9.3,"10:32:24",1
"21/12/04","10:50",0.0,11.2,69.8,1014.0,273.8,2.2,4.5,335.1,0.43,5.9,9.4,"10:42:40",1
"21/12/04","11:00",0.0,11.3,69.3,1013.8,247.8,2.8,5.2,221.3,0.48,5.9,9.2,"10:51:36",1
"21/12/04","11:10",0.0,11.3,68.1,1013.8,268.0,2.3,4.8,238.8,0.41,5.7,9.2,"11:09:04",1
"21/12/04","11:20",0.0,11.8,66.6,1013.8,255.0,2.2,3.9,242.9,0.49,5.8,9.4,"11:16:32",1
"21/12/04","11:30",0.0,11.6,65.0,1014.0,290.3,2.2,4.4,233.9,0.33,5.3,9.6,"11:20:56",1
"21/12/04","11:40",0.0,10.8,66.4,1013.5,298.6,2.0,4.9,316.3,0.14,4.8,9.5,"11:33:20",1
"21/12/04","11:50",0.0,10.6,66.2,1013.8,296.1,2.2,4.4,336.5,0.22,4.6,9.6,"11:45:44",1
"21/12/04","12:00",0.0,10.2,67.3,1013.8,297.3,2.2,3.7,332.1,0.09,4.5,9.8,"11:50:40",1
"21/12/04","12:10",0.0,10.0,68.6,1013.0,326.0,2.5,4.2,342.6,0.12,4.5,9.6,"12:00:08",1
"21/12/04","12:20",0.0,10.6,67.0,1013.3,277.1,2.1,3.7,343.7,0.28,4.8,9.7,"12:11:36",1
"21/12/04","12:30",0.0,10.5,65.4,1013.3,304.4,2.3,5.2,337.9,0.13,4.3,9.7,"12:28:48",1
"21/12/04","12:40",0.0,10.5,64.8,1013.3,286.5,2.2,4.2,343.8,0.13,4.2,9.8,"12:34:24",1
"21/12/04","12:50",0.0,10.3,64.6,1013.3,288.0,2.3,4.4,334.5,0.07,4.0,9.8,"12:47:28",1
"21/12/04","13:00",0.0,10.3,65.0,1013.3,289.4,2.1,3.6,259.1,0.09,4.1,9.7,"12:53:20",1
"21/12/04","13:10",0.0,10.3,64.9,1013.0,293.8,2.3,5.4,346.8,0.08,4.0,9.9,"13:03:20",1
"21/12/04","13:20",0.0,10.1,64.9,1013.3,294.0,2.2,4.9,327.1,0.03,3.8,9.9,"13:11:52",1
"21/12/04","13:30",0.0,10.3,66.1,1013.3,267.5,2.8,5.0,328.3,0.12,4.3,10.0,"13:25:52",1
"21/12/04","13:40",0.0,11.2,65.0,1013.0,264.3,2.0,4.1,227.8,0.34,4.9,10.2,"13:30:08",1
"21/12/04","13:50",0.0,12.1,62.7,1012.8,263.5,1.6,3.7,240.4,0.35,5.2,10.0,"13:45:12",1
"21/12/04","14:00",0.0,12.6,59.9,1013.3,294.5,2.2,4.8,273.1,0.34,5.1,10.1,"13:58:24",1
"21/12/04","14:10",0.0,12.2,57.2,1013.0,308.8,2.6,7.9,326.6,0.27,4.0,10.2,"14:00:02",1
"21/12/04","14:20",0.0,11.5,57.0,1013.3,315.7,3.9,8.3,335.8,0.26,3.3,10.2,"14:10:08",1
"21/12/04","14:30",0.0,11.0,58.1,1013.8,320.3,3.2,7.0,349.0,0.10,3.1,10.2,"14:26:56",1
"21/12/04","14:40",0.0,10.8,60.5,1013.5,304.2,2.7,5.0,340.5,0.05,3.5,10.3,"14:37:36",1
"21/12/04","14:50",0.0,10.5,63.5,1013.5,330.0,2.7,5.4,322.3,0.05,3.9,10.4,"14:43:04",1
"21/12/04","15:00",0.0,10.4,64.3,1013.5,332.5,2.6,6.2,320.1,0.09,4.0,10.4,"14:53:20",1
"21/12/04","15:10",0.0,10.5,63.1,1013.8,324.7,2.8,5.1,348.4,0.09,3.8,10.3,"15:03:04",1
"21/12/04","15:20",0.0,10.5,61.9,1014.0,318.9,2.8,6.3,351.8,0.09,3.6,10.4,"15:19:28",1
"21/12/04","15:30",0.0,10.4,61.7,1014.5,316.0,2.7,4.4,345.0,0.07,3.4,10.6,"15:21:28",1
"21/12/04","15:40",0.0,10.1,62.4,1014.7,305.5,2.5,4.7,345.5,0.03,3.3,10.5,"15:30:56",1
"21/12/04","15:50",0.0,9.8,63.6,1014.5,303.6,2.2,5.1,246.6,0.01,3.3,10.5,"15:41:36",1
"21/12/04","16:00",0.0,9.6,64.4,1014.7,323.2,2.6,4.2,298.7,0.01,3.3,10.6,"15:52:48",1
"21/12/04","16:10",0.0,9.6,65.5,1014.9,321.0,2.2,4.2,343.0,0.01,3.5,10.5,"16:04:32",1
"21/12/04","16:20",0.0,9.4,65.7,1014.7,320.5,2.2,5.1,318.0,0.02,3.4,10.7,"16:17:20",1
"21/12/04","16:30",0.0,9.3,65.9,1015.2,300.9,2.2,4.7,303.8,0.01,3.3,10.5,"16:29:20",1
"21/12/04","16:40",0.0,9.1,66.4,1015.4,318.6,3.1,6.6,327.0,0.00,3.2,10.3,"16:30:08",1
"21/12/04","16:50",0.0,9.0,66.8,1015.9,319.5,3.1,6.2,317.3,0.00,3.2,10.4,"16:45:12",1
"21/12/04","17:00",0.0,8.5,69.2,1015.6,326.2,3.7,10.2,333.2,0.00,3.2,10.4,"16:56:00",1
"21/12/04","17:10",0.0,7.8,71.9,1016.1,316.6,3.7,7.2,345.1,0.00,3.1,10.6,"17:00:40",1
"21/12/04","17:20",0.0,7.7,73.0,1015.9,322.4,3.9,7.3,339.6,0.00,3.2,10.3,"17:17:36",1
"21/12/04","17:30",0.0,7.6,73.5,1016.6,319.7,3.5,7.0,318.4,0.00,3.2,10.6,"17:20:26",1
"21/12/04","17:40",0.0,7.5,73.9,1016.6,311.6,3.1,6.8,327.5,0.00,3.2,10.6,"17:37:14",1
"21/12/04","17:50",0.0,7.5,74.2,1016.4,309.9,3.6,6.0,305.9,0.00,3.2,10.2,"17:40:40",1
"21/12/04","18:00",0.0,7.3,74.5,1016.6,301.1,2.7,5.4,322.8,0.00,3.1,10.5,"17:50:24",1
"21/12/04","18:10",0.0,7.1,75.2,1016.6,298.3,2.5,4.3,283.6,0.00,3.1,10.4,"18:00:16",1
"21/12/04","18:20",0.0,6.9,75.9,1016.8,304.9,2.5,4.0,308.2,0.00,3.0,10.5,"18:13:52",1
"21/12/04","18:30",0.0,6.7,76.7,1017.3,297.2,2.1,3.4,321.4,0.00,2.9,10.4,"18:29:20",1
"21/12/04","18:40",0.0,6.6,77.5,1017.1,313.1,1.5,2.9,311.2,0.00,3.0,10.2,"18:36:48",1
"21/12/04","18:50",0.0,6.6,78.2,1017.5,287.4,1.8,3.4,328.2,0.00,3.1,10.5,"18:40:02",1
"21/12/04","19:00",0.0,6.7,78.7,1017.8,307.1,2.0,4.0,329.2,0.00,3.3,10.2,"18:54:16",1
"21/12/04","19:10",0.0,6.7,79.4,1017.5,301.2,2.1,3.5,337.0,0.00,3.4,10.2,"19:03:44",1
"21/12/04","19:20",0.0,6.7,80.1,1017.8,278.9,2.0,3.6,243.8,0.00,3.6,10.1,"19:17:36",1
"21/12/04","19:30",0.0,6.7,80.8,1017.8,280.6,1.8,3.1,267.5,0.00,3.7,10.2,"19:24:32",1
"21/12/04","19:40",0.0,6.6,81.5,1018.0,292.1,2.2,3.9,318.2,0.00,3.7,10.1,"19:37:52",1
"21/12/04","19:50",0.0,6.5,82.0,1018.0,282.3,2.0,3.7,271.3,0.00,3.7,10.3,"19:44:08",1
"21/12/04","20:00",0.0,6.5,82.4,1017.8,276.9,2.1,3.9,245.1,0.00,3.8,10.1,"19:52:56",1
"21/12/04","20:10",0.0,6.5,82.7,1017.8,266.7,2.3,3.6,250.3,0.00,3.8,10.2,"20:03:12",1
"21/12/04","20:20",0.0,6.4,82.9,1018.0,272.8,2.1,3.6,249.4,0.00,3.8,10.1,"20:19:04",1
"21/12/04","20:30",0.0,6.3,83.0,1018.2,278.0,2.1,3.2,205.4,0.00,3.7,10.3,"20:24:16",1
"21/12/04","20:40",0.0,6.2,83.0,1018.5,284.1,2.1,3.5,281.2,0.00,3.6,10.2,"20:38:24",1
"21/12/04","20:50",0.0,6.1,83.1,1018.7,293.7,1.7,3.1,329.5,0.00,3.5,10.1,"20:49:44",1
"21/12/04","21:00",0.0,6.0,83.5,1018.7,310.2,1.8,2.8,320.8,0.00,3.5,10.1,"20:50:08",1
"21/12/04","21:10",0.0,5.8,83.8,1018.7,293.2,1.8,3.5,327.2,0.00,3.3,10.2,"21:08:00",1
"21/12/04","21:20",0.0,5.7,84.1,1019.0,287.4,1.7,2.1,271.3,0.00,3.3,10.2,"21:18:16",1
"21/12/04","21:30",0.0,5.5,84.5,1019.2,298.9,1.6,3.4,333.7,0.00,3.1,9.9,"21:22:24",1
"21/12/04","21:40",0.0,5.3,84.9,1019.2,312.2,1.7,2.5,316.2,0.00,3.0,9.8,"21:35:04",1
"21/12/04","21:50",0.0,5.1,85.3,1019.2,311.0,1.7,2.5,316.8,0.00,2.9,10.0,"21:42:48",1
"21/12/04","22:00",0.0,4.4,85.8,1019.2,313.8,1.3,2.5,319.0,0.00,2.3,10.0,"21:52:16",1
"21/12/04","22:10",0.0,4.0,86.4,1019.0,299.6,1.2,2.0,331.2,0.00,2.0,9.9,"22:03:04",1
"21/12/04","22:20",0.0,3.6,87.3,1019.2,325.2,2.0,3.1,330.0,0.00,1.7,9.9,"22:12:48",1
"21/12/04","22:30",0.0,3.2,87.9,1019.0,306.4,1.6,2.6,323.5,0.00,1.4,9.8,"22:21:20",1
"21/12/04","22:40",0.0,3.2,88.8,1019.2,311.6,2.1,2.8,315.9,0.00,1.6,9.9,"22:32:56",1
"21/12/04","22:50",0.0,3.3,89.3,1019.2,318.1,2.1,2.9,335.8,0.00,1.8,9.8,"22:49:04",1
"21/12/04","23:00",0.0,3.5,89.9,1019.2,314.9,2.2,3.4,324.3,0.00,2.0,9.7,"22:58:24",1
"21/12/04","23:10",0.0,4.0,90.3,1019.2,316.3,2.7,4.0,311.6,0.00,2.6,9.7,"23:03:30",1
"21/12/04","23:20",0.0,4.1,90.6,1019.4,319.4,2.3,4.8,334.7,0.00,2.7,9.8,"23:15:44",1
"21/12/04","23:30",0.0,4.2,90.8,1019.4,314.8,1.8,2.7,323.0,0.00,2.9,9.6,"23:24:48",1
"21/12/04","23:40",0.0,4.1,91.0,1019.4,315.6,2.2,3.2,321.5,0.00,2.8,9.7,"23:33:12",1
"21/12/04","23:50",0.0,3.8,91.1,1019.4,321.0,1.7,2.6,309.5,0.00,2.5,9.7,"23:47:28",1
"21/12/04","24:00",0.0,3.5,91.4,1019.2,290.9,2.0,3.2,306.8,0.00,2.3,9.4,"23:56:48",1
